XML Sitemap

This is a XML Sitemap which is supposed to be processed by search engines which follow the XML Sitemap standard like Ask.com, Bing, Google and Yahoo.
It was generated using the WordPress content management system and the Google Sitemap Generator Plugin by Arne Brachhold.
You can find more information about XML sitemaps on sitemaps.org and Google's list of sitemap programs.

URLPriorityChange frequencyLast modified (GMT)
https://100frames.com/33-free-printable-2019-calendar-by-month-with-holidays/50%Daily2019-03-09 06:05
https://100frames.com/30-big-block-monthly-calendar-printable/50%Daily2019-03-09 06:05
https://100frames.com/35-2019-printable-calendar-12-months-on-one-page/50%Daily2019-03-09 06:03
https://100frames.com/31-stained-glass-advent-calendar-printable/50%Daily2019-03-09 06:00
https://100frames.com/21-11x17-printable-calendar/50%Daily2019-03-09 06:00
https://100frames.com/30-customized-calendar-2019-free-printable/50%Daily2019-03-09 05:58
https://100frames.com/29-free-printable-calendar-2019-i-can-write-on/50%Daily2019-03-09 05:57
https://100frames.com/34-hoops-and-yoyo-printable-calendar/50%Daily2019-03-09 05:54
https://100frames.com/33-ucr-academic-calendar/50%Daily2019-03-09 05:52
https://100frames.com/33-cute-monthly-calendar-printable-2019/50%Daily2019-03-09 05:45
https://100frames.com/32-blank-page-printable-calendar/50%Daily2019-03-09 05:39
https://100frames.com/31-ufc-events-calendar/50%Daily2019-03-09 05:35
https://100frames.com/30-printable-monthly-calendar-2019/50%Daily2019-03-09 05:30
https://100frames.com/32-june-2019-blank-calendar-template/50%Daily2019-03-09 05:25
https://100frames.com/34-blank-calendar-july-2019/50%Daily2019-03-09 05:20
https://100frames.com/31-calendar-2019-july-august-printable/50%Daily2019-03-09 05:15
https://100frames.com/22-online-printable-fill-in-calendar/50%Daily2019-03-09 05:09
https://100frames.com/31-july-2019-large-printable-calendar/50%Daily2019-03-09 05:05
https://100frames.com/35-club-passim-calendar/50%Daily2019-03-09 05:00
https://100frames.com/31-printable-2019-weekly-calendar-or-planner/50%Daily2019-03-09 04:55
https://100frames.com/21-december-2019-printable-calendar-in-word/50%Daily2019-03-09 04:50
https://100frames.com/32-november-2019-holidays/50%Daily2019-03-09 04:45
https://100frames.com/33-printable-30-day-shred-calendar/50%Daily2019-03-09 04:40
https://100frames.com/30-printable-calendars-monthly/50%Daily2019-03-09 04:34
https://100frames.com/33-february-2019-calendar-printable-large/50%Daily2019-03-09 04:30
https://100frames.com/31-printable-calendar-january-february-march/50%Daily2019-03-09 04:25
https://100frames.com/32-printable-wall-calendar-2019-free/50%Daily2019-03-09 04:20
https://100frames.com/35-printable-calendar-2019-academic/50%Daily2019-03-09 04:15
https://100frames.com/33-printable-2019-2019-academic-year-calendar/50%Daily2019-03-09 04:10
https://100frames.com/32-december-calendar-page/50%Daily2019-03-09 04:05
https://100frames.com/33-printable-december-month-calendar/50%Daily2019-03-09 04:00
https://100frames.com/31-printable-calendar-2019-2019/50%Daily2019-03-09 03:56
https://100frames.com/26-printable-blank-monthly-calendar-template/50%Daily2019-03-09 03:49
https://100frames.com/34-september-printable-calendar-with-holidays/50%Daily2019-03-09 03:45
https://100frames.com/32-january-2019-printable-calendar-11x17/50%Daily2019-03-09 03:40
https://100frames.com/34-2019-to-2019-calendar-printable/50%Daily2019-03-09 03:36
https://100frames.com/35-diet-countdown-calendar-printable/50%Daily2019-03-09 03:30
https://100frames.com/32-free-october-2019-calendar-template/50%Daily2019-03-09 03:25
https://100frames.com/31-calendar-page-december-2019/50%Daily2019-03-09 03:20
https://100frames.com/33-printable-calendar-march-april-may/50%Daily2019-03-09 03:15
https://100frames.com/33-printable-bento-calendar/50%Daily2019-03-09 03:10
https://100frames.com/30-kipp-calendar-2019-2020/50%Daily2019-03-09 03:05
https://100frames.com/30-may-calendar-2019-printable-colorful/50%Daily2019-03-09 03:00
https://100frames.com/35-horizontal-printable-small-calendar-2019/50%Daily2019-03-09 02:55
https://100frames.com/16-blank-calendars-to-print-for-free/50%Daily2019-03-09 02:49
https://100frames.com/33-t25-alpha-calendar-printable/50%Daily2019-03-09 02:45
https://100frames.com/35-goodwill-cincinnati-calendar/50%Daily2019-03-09 02:40
https://100frames.com/33-printable-month-calendar-vertical/50%Daily2019-03-09 02:35
https://100frames.com/32-hijri-calendar-2019/50%Daily2019-03-09 02:31
https://100frames.com/34-calendar-2019-printable-australian-landscape/50%Daily2019-03-09 02:28
https://100frames.com/32-printable-minimal-calendar/50%Daily2019-03-09 02:25
https://100frames.com/31-tamil-daily-calendar-2019-2020/50%Daily2019-03-09 02:25
https://100frames.com/6-veda-temple-calendar-2019-2020/50%Daily2019-03-09 02:14
https://100frames.com/35-2019-printable-calendar-in-3x5-size/50%Daily2019-03-09 02:10
https://100frames.com/33-printable-large-blank-december-2019-calendar/50%Daily2019-03-09 02:05
https://100frames.com/35-sf-giants-calendar-2019-2020/50%Daily2019-03-09 02:00
https://100frames.com/32-2019-engagement-calendar/50%Daily2019-03-09 01:55
https://100frames.com/34-printable-february-2019-calendar-imom/50%Daily2019-03-09 01:50
https://100frames.com/32-nov-2019-calendar-printable-pdf/50%Daily2019-03-09 01:45
https://100frames.com/31-greene-county-school-calendar/50%Daily2019-03-09 01:42
https://100frames.com/30-printable-school-calendar-2019-17/50%Daily2019-03-09 01:40
https://100frames.com/30-printable-calendar-on-legal-size-paper/50%Daily2019-03-09 01:40
https://100frames.com/35-printable-monthly-calendar-4-months-per-page/50%Daily2019-03-09 01:31
https://100frames.com/31-ccsd-calendar-2019/50%Daily2019-03-09 01:25
https://100frames.com/35-beauty-adventskalender-2019/50%Daily2019-03-09 01:20
https://100frames.com/34-calendar-quotes-for-each-month/50%Daily2019-03-09 01:15
https://100frames.com/30-paw-patrol-calendar-printable/50%Daily2019-03-09 01:10
https://100frames.com/31-lps-calendar-2019-2020/50%Daily2019-03-09 01:05
https://100frames.com/34-make-printable-calendar-pages/50%Daily2019-03-09 01:00
https://100frames.com/35-free-printable-academic-calendar-2019/50%Daily2019-03-09 00:55
https://100frames.com/35-free-printable-photo-calendar-templates-2019/50%Daily2019-03-09 00:51
https://100frames.com/32-december-printable-monthly-calendar-2019/50%Daily2019-03-09 00:45
https://100frames.com/31-printable-january-2019-calendar-pdf/50%Daily2019-03-09 00:40
https://100frames.com/34-katy-isd-calendar/50%Daily2019-03-09 00:35
https://100frames.com/34-fox-theater-calendar/50%Daily2019-03-09 00:30
https://100frames.com/32-printable-calendar-2019-cute/50%Daily2019-03-09 00:25
https://100frames.com/30-calendar-august-2019-with-holidays/50%Daily2019-03-09 00:20
https://100frames.com/35-march-blank-calendar-2019-printable/50%Daily2019-03-09 00:15
https://100frames.com/34-2019-year-printable-calendar-pdf/50%Daily2019-03-09 00:11
https://100frames.com/34-printable-calendar-2019-by-month/50%Daily2019-03-09 00:05
https://100frames.com/30-free-printable-july-calendar/50%Daily2019-03-09 00:00
https://100frames.com/31-printable-dec-calendar/50%Daily2019-03-08 23:55
https://100frames.com/35-calendar-page-february-2019/50%Daily2019-03-08 23:50
https://100frames.com/31-free-june-2019-calendar-template/50%Daily2019-03-08 23:45
https://100frames.com/32-free-printable-blank-september-calendar-for-2019/50%Daily2019-03-08 23:40
https://100frames.com/35-pregnancy-calendar-week-by-week-printable/50%Daily2019-03-08 23:35
https://100frames.com/23-printable-scripture-verses-for-advent-calendar/50%Daily2019-03-08 23:29
https://100frames.com/33-printable-5-day-calendar/50%Daily2019-03-08 23:25
https://100frames.com/31-full-page-printable-monthly-calendar-october-2019/50%Daily2019-03-08 23:19
https://100frames.com/31-august-september-printable-calendar/50%Daily2019-03-08 23:15
https://100frames.com/33-printable-calendar-2019-year-to-view/50%Daily2019-03-08 23:10
https://100frames.com/31-calendar-printable-december-2019/50%Daily2019-03-08 23:05
https://100frames.com/30-calendar-printables-presidents-memory-cards/50%Daily2019-03-08 23:00
https://100frames.com/31-cruise-countdown-calendar-printable/50%Daily2019-03-08 22:55
https://100frames.com/32-free-printable-calendar-for-october-2019/50%Daily2019-03-08 22:50
https://100frames.com/30-printable-calendar-images/50%Daily2019-03-08 22:45
https://100frames.com/21-columbus-alive-calendar/50%Daily2019-03-08 22:40
https://100frames.com/33-printable-daily-at-a-glance-calendar/50%Daily2019-03-08 22:35
https://100frames.com/25-printable-november-calendar/50%Daily2019-03-08 22:29
https://100frames.com/33-august-printable-calendar-for-2019/50%Daily2019-03-08 22:25
https://100frames.com/32-february-2019-calendar-printable-pretty/50%Daily2019-03-08 22:20
https://100frames.com/34-september-2019-calendar-cute-cute-and-crafty-monthly-calendar-2019/50%Daily2019-03-08 22:15
https://100frames.com/31-december-2019-monthly-planner/50%Daily2019-03-08 22:09
https://100frames.com/30-free-printable-calendars-2019-with-pictures/50%Daily2019-03-08 22:05
https://100frames.com/33-calendar-activities-printables/50%Daily2019-03-08 22:00
https://100frames.com/9-lrsd-2019-2020-calendar/50%Daily2019-03-08 21:54
https://100frames.com/30-printables-calendars/50%Daily2019-03-08 21:50
https://100frames.com/32-2019-weekday-calendar-printable/50%Daily2019-03-08 21:45
https://100frames.com/34-april-may-calendar-2019-printable/50%Daily2019-03-08 21:40
https://100frames.com/33-cool-printable-calendar-template/50%Daily2019-03-08 21:36
https://100frames.com/32-august-2019-printable-calendar-time-and-date/50%Daily2019-03-08 21:30
https://100frames.com/30-editable-printable-september-2019-calendar/50%Daily2019-03-08 21:25
https://100frames.com/34-monthly-calendars-8-x-11-august/50%Daily2019-03-08 21:21
https://100frames.com/33-free-blank-printable-calendars-for-teachers/50%Daily2019-03-08 21:15
https://100frames.com/33-february-2019-printable-calendar-waterproof/50%Daily2019-03-08 21:11
https://100frames.com/33-free-printable-yearly-calendar-downloadable/50%Daily2019-03-08 21:05
https://100frames.com/30-january-2019-printable-calendar-australia/50%Daily2019-03-08 20:59
https://100frames.com/35-st-joseph-school-calendar/50%Daily2019-03-08 20:55
https://100frames.com/32-blank-february-calendar-2019/50%Daily2019-03-08 20:50
https://100frames.com/30-free-printable-photo-calendar/50%Daily2019-03-08 20:45
https://100frames.com/31-free-nov-2019-calendar/50%Daily2019-03-08 20:40
https://100frames.com/32-lunar-calendar-august-2019/50%Daily2019-03-08 20:36
https://100frames.com/35-bay-district-schools-calendar/50%Daily2019-03-08 20:30
https://100frames.com/30-december-calendar-for-2019/50%Daily2019-03-08 20:25
https://100frames.com/32-printable-monthly-2019-2020-calendar/50%Daily2019-03-08 20:20
https://100frames.com/31-cute-printable-calendar-2019-18/50%Daily2019-03-08 20:15
https://100frames.com/35-two-month-at-a-glance-printable-calendar/50%Daily2019-03-08 20:10
https://100frames.com/34-calendar-for-year-2019-united-states-printable/50%Daily2019-03-08 20:06
https://100frames.com/30-cute-calendar-february-2019-printable/50%Daily2019-03-08 20:00
https://100frames.com/34-august-calendar-printable-cute/50%Daily2019-03-08 19:55
https://100frames.com/30-2019-calendar-uk-three-year-calendars-for-2019-2020-2021-uk-for-word/50%Daily2019-03-08 19:50
https://100frames.com/34-daily-appointment-calendar-2019-printable/50%Daily2019-03-08 19:45
https://100frames.com/32-2019-attendance-calendar-printable-free-printable-academic-calendar-for-2019-2019-school-year/50%Daily2019-03-08 19:40
https://100frames.com/30-february-march-printable-calendar/50%Daily2019-03-08 19:35
https://100frames.com/31-january-2019-printable-calendar-large-numbers/50%Daily2019-03-08 19:30
https://100frames.com/35-printable-template-calendars/50%Daily2019-03-08 19:25
https://100frames.com/35-2019-printable-planner-calendar-8-5-x-5-5-free/50%Daily2019-03-08 19:20
https://100frames.com/35-4-year-calendar-2019-to-2021-printable/50%Daily2019-03-08 19:15
https://100frames.com/35-3-month-calendars-free-printable/50%Daily2019-03-08 19:10
https://100frames.com/30-things-to-do-in-nyc-calendar/50%Daily2019-03-08 19:04
https://100frames.com/32-printable-calendar-2019-dec/50%Daily2019-03-08 19:00
https://100frames.com/35-swot-analysis-template-excel/50%Daily2019-03-08 18:55
https://100frames.com/30-sci-academy-calendar/50%Daily2019-03-08 18:50
https://100frames.com/30-printable-2019-yearly-calendar/50%Daily2019-03-08 18:45
https://100frames.com/32-st-louis-race-calendar/50%Daily2019-03-08 18:40
https://100frames.com/31-printable-advent-calendar-scriptures/50%Daily2019-03-08 18:34
https://100frames.com/34-printable-november-month-calendar-2019/50%Daily2019-03-08 18:30
https://100frames.com/35-calendars-2019-december/50%Daily2019-03-08 18:25
https://100frames.com/33-custom-calendar-printing/50%Daily2019-03-08 18:20
https://100frames.com/34-business-card-calendar-magnets/50%Daily2019-03-08 18:15
https://100frames.com/33-large-wall-calendar-printable/50%Daily2019-03-08 18:10
https://100frames.com/33-printable-calendar-september-2019/50%Daily2019-03-08 18:04
https://100frames.com/30-kindergarten-calendar-math-printables/50%Daily2019-03-08 18:00
https://100frames.com/35-printable-nfl-game-calendar/50%Daily2019-03-08 17:54
https://100frames.com/31-day-of-year-calendar-2019/50%Daily2019-03-08 17:50